contact:dominique.lefevre@mio.osupytheas.fr, maurice.libes@osupytheas.fr
Project:EMSO Ligure-ouest http://www.emso-fr.org/EMSO-France
Sensor Aquadopp, line 13 Serial AQD14315 
DOI : "https://doi.org/10.17882/74513; https://doi.org/10.17882/83244" 
Title:EMSO Ligure Ouest : Data ligne ALBATROSS capteur AQUADOPP - deploiement 2021
Id,Date,Profondeur,Latitude,Longitude,X_East,Y_North,Z_Up,Amplitude_X,Amplitude_Y,Amplitude_Z,Batterie,SoundSpeed,Heading,Pitch,Roll,Pressure,Temperature,Speed,Direction
, , m, degrees North, degrees East, m.s-1, m.s-1,m.s-1, 1, 1, 1, Volt, m.s-1, degree, degree, degree, dbar, degree_C, m.s-1, degree
07,2021-11-29T21:30:00,1500.0,42.79,6.0312,0.032,-0.03,0.0,53.0,53.0,53.0,12.6,1504.1,113.7,-0.2,-0.1,1472.745,13.12,0.043,133.1
07,2021-11-29T22:00:00,1500.0,42.79,6.0312,0.02,-0.042,-0.003,51.0,52.0,51.0,12.6,1504.1,113.9,-0.3,-0.4,1472.697,13.12,0.046,154.5
07,2021-11-29T22:30:00,1500.0,42.79,6.0312,0.027,-0.035,0.012,52.0,51.0,50.0,12.6,1504.0,118.1,-0.4,-0.3,1472.705,13.11,0.044,142.3
07,2021-11-29T23:00:00,1500.0,42.79,6.0312,0.037,-0.04,0.0,51.0,52.0,51.0,12.6,1504.1,114.6,-0.3,-0.3,1472.715,13.12,0.054,137.2
07,2021-11-29T23:30:00,1500.0,42.79,6.0312,0.044,-0.035,0.013,51.0,52.0,53.0,12.6,1504.1,117.7,-0.3,-0.3,1472.688,13.12,0.056,128.5
07,2021-11-30T00:00:00,1500.0,42.79,6.0312,0.032,-0.03,0.0,51.0,51.0,52.0,12.6,1504.1,119.0,0.0,-0.2,1472.727,13.12,0.043,133.1
07,2021-11-30T00:30:00,1500.0,42.79,6.0312,0.03,-0.034,-0.001,52.0,52.0,52.0,12.6,1504.1,113.2,0.0,0.0,1472.743,13.12,0.045,138.6
07,2021-11-30T01:00:00,1500.0,42.79,6.0312,0.031,-0.036,-0.001,52.0,52.0,53.0,12.6,1504.0,112.0,0.3,0.0,1472.778,13.11,0.047,139.3
07,2021-11-30T01:30:00,1500.0,42.79,6.0312,0.025,-0.04,0.004,52.0,54.0,53.0,12.6,1504.0,110.8,-0.3,-0.4,1472.738,13.11,0.047,148.0
07,2021-11-30T02:00:00,1500.0,42.79,6.0312,0.035,-0.033,0.001,54.0,53.0,53.0,12.6,1504.1,111.9,0.2,-0.1,1472.765,13.12,0.048,133.3
07,2021-11-30T02:30:00,1500.0,42.79,6.0312,0.029,-0.035,0.011,54.0,55.0,53.0,12.6,1504.1,115.1,-0.1,-0.4,1472.773,13.12,0.045,140.4
07,2021-11-30T03:00:00,1500.0,42.79,6.0312,0.029,-0.027,-0.005,53.0,54.0,53.0,12.6,1504.1,118.3,-0.3,-0.3,1472.789,13.12,0.039,133.0
07,2021-11-30T03:30:00,1500.0,42.79,6.0312,0.029,-0.039,0.0,54.0,54.0,55.0,12.6,1504.1,118.2,-0.4,-0.2,1472.841,13.12,0.048,143.4
07,2021-11-30T04:00:00,1500.0,42.79,6.0312,0.039,-0.032,0.005,54.0,55.0,54.0,12.6,1504.1,120.7,-0.2,-0.1,1472.813,13.12,0.05,129.4
07,2021-11-30T04:30:00,1500.0,42.79,6.0312,0.044,-0.033,0.0,55.0,54.0,54.0,12.6,1504.1,119.8,-0.1,-0.1,1472.823,13.12,0.055,126.9
07,2021-11-30T05:00:00,1500.0,42.79,6.0312,0.025,-0.04,0.006,55.0,55.0,55.0,12.6,1504.1,122.5,-0.2,-0.4,1472.848,13.12,0.047,148.0
07,2021-11-30T05:30:00,1500.0,42.79,6.0312,0.036,-0.028,-0.006,56.0,56.0,55.0,12.6,1504.1,125.7,-0.5,-0.3,1472.847,13.13,0.045,127.9
07,2021-11-30T06:00:00,1500.0,42.79,6.0312,0.042,-0.029,-0.014,55.0,54.0,54.0,12.6,1504.1,117.8,-0.1,-0.3,1472.817,13.13,0.051,124.6
07,2021-11-30T06:30:00,1500.0,42.79,6.0312,0.036,-0.023,-0.003,55.0,57.0,55.0,12.6,1504.1,121.5,0.0,-0.3,1472.813,13.13,0.042,122.6
07,2021-11-30T07:00:00,1500.0,42.79,6.0312,0.034,-0.038,0.004,56.0,55.0,54.0,12.6,1504.1,125.8,-0.4,-0.2,1472.783,13.12,0.05,138.2
07,2021-11-30T07:30:00,1500.0,42.79,6.0312,0.031,-0.034,0.007,55.0,56.0,55.0,12.6,1504.1,130.0,-0.3,-0.2,1472.808,13.12,0.046,137.6
07,2021-11-30T08:00:00,1500.0,42.79,6.0312,0.032,-0.022,0.002,54.0,55.0,54.0,12.6,1504.1,129.2,-0.1,0.0,1472.815,13.12,0.038,124.5
07,2021-11-30T08:30:00,1500.0,42.79,6.0312,0.021,-0.038,-0.014,54.0,55.0,53.0,12.6,1504.1,135.2,-0.2,0.1,1472.811,13.12,0.043,151.1
07,2021-11-30T09:00:00,1500.0,42.79,6.0312,0.018,-0.041,0.0,54.0,55.0,54.0,12.6,1504.1,135.4,-0.4,0.0,1472.799,13.12,0.044,156.3
07,2021-11-30T09:30:00,1500.0,42.79,6.0312,0.016,-0.034,-0.001,54.0,55.0,54.0,12.6,1504.1,125.2,-0.2,-0.3,1472.785,13.12,0.037,154.8
07,2021-11-30T10:00:00,1500.0,42.79,6.0312,0.03,-0.04,0.011,54.0,55.0,56.0,12.6,1504.1,126.3,-0.2,-0.3,1472.809,13.12,0.05,143.1
07,2021-11-30T10:30:00,1500.0,42.79,6.0312,0.037,-0.04,0.001,56.0,57.0,57.0,12.6,1504.1,118.1,0.2,-0.3,1472.81,13.12,0.054,137.2
07,2021-11-30T11:00:00,1500.0,42.79,6.0312,0.032,-0.042,0.011,56.0,55.0,56.0,12.6,1504.1,126.3,0.0,-0.3,1472.823,13.12,0.052,142.7
07,2021-11-30T11:30:00,1500.0,42.79,6.0312,0.033,-0.04,0.006,57.0,60.0,57.0,12.6,1504.1,127.2,-0.2,-0.1,1472.824,13.12,0.051,140.5
07,2021-11-30T12:00:00,1500.0,42.79,6.0312,0.027,-0.035,0.005,57.0,58.0,59.0,12.6,1504.1,123.3,-0.6,-0.4,1472.914,13.12,0.044,142.3
07,2021-11-30T12:30:00,1500.0,42.79,6.0312,0.035,-0.042,-0.009,57.0,58.0,58.0,12.6,1504.1,120.0,0.1,-0.3,1472.876,13.12,0.054,140.2
07,2021-11-30T13:00:00,1500.0,42.79,6.0312,0.042,-0.041,-0.003,58.0,58.0,57.0,12.6,1504.1,116.7,-0.2,-0.4,1472.908,13.12,0.058,134.3
07,2021-11-30T13:30:00,1500.0,42.79,6.0312,0.031,-0.047,0.007,58.0,58.0,59.0,12.6,1504.1,129.9,-0.3,-0.3,1472.956,13.12,0.056,146.6
07,2021-11-30T14:00:00,1500.0,42.79,6.0312,0.003,-0.058,0.001,58.0,58.0,58.0,12.6,1504.1,146.3,-0.2,-0.3,1473.013,13.12,0.058,177.0
07,2021-11-30T14:30:00,1500.0,42.79,6.0312,0.025,-0.058,0.014,57.0,58.0,58.0,12.6,1504.1,132.6,-0.5,-0.4,1472.992,13.12,0.063,156.7
07,2021-11-30T15:00:00,1500.0,42.79,6.0312,0.023,-0.053,-0.004,57.0,59.0,57.0,12.6,1504.1,135.0,0.0,-0.3,1472.997,13.12,0.057,156.5
07,2021-11-30T15:30:00,1500.0,42.79,6.0312,0.009,-0.05,-0.022,58.0,58.0,57.0,12.6,1504.1,133.8,-0.1,-0.1,1472.999,13.12,0.05,169.8
07,2021-11-30T16:00:00,1500.0,42.79,6.0312,0.018,-0.042,-0.013,58.0,58.0,59.0,12.6,1504.1,134.8,-0.5,-0.2,1473.021,13.12,0.045,156.8
07,2021-11-30T16:30:00,1500.0,42.79,6.0312,0.025,-0.041,0.007,60.0,60.0,60.0,12.6,1504.1,139.6,-0.3,-0.2,1473.025,13.12,0.048,148.6
07,2021-11-30T17:00:00,1500.0,42.79,6.0312,0.014,-0.047,0.0,59.0,61.0,60.0,12.6,1504.1,138.0,-0.2,-0.1,1473.017,13.12,0.049,163.4
07,2021-11-30T17:30:00,1500.0,42.79,6.0312,0.017,-0.049,0.008,61.0,62.0,60.0,12.6,1504.0,140.8,-0.2,-0.2,1473.003,13.11,0.051,160.9
07,2021-11-30T18:00:00,1500.0,42.79,6.0312,0.0,-0.039,0.002,62.0,60.0,60.0,12.6,1504.1,152.5,-0.2,-0.4,1472.967,13.12,0.039,180.0
07,2021-11-30T18:30:00,1500.0,42.79,6.0312,0.014,-0.048,-0.01,59.0,60.0,61.0,12.6,1504.0,139.1,-0.3,-0.4,1472.995,13.11,0.05,163.7
07,2021-11-30T19:00:00,1500.0,42.79,6.0312,0.017,-0.026,0.002,59.0,61.0,61.0,12.6,1504.1,138.3,0.0,-0.3,1472.985,13.12,0.031,146.8
07,2021-11-30T19:30:00,1500.0,42.79,6.0312,0.029,-0.039,0.004,60.0,59.0,60.0,12.6,1504.1,142.9,-0.4,-0.3,1472.913,13.12,0.048,143.4
07,2021-11-30T20:00:00,1500.0,42.79,6.0312,0.027,-0.033,-0.009,60.0,60.0,59.0,12.6,1504.1,142.7,-0.2,0.0,1472.905,13.12,0.042,140.7
07,2021-11-30T20:30:00,1500.0,42.79,6.0312,0.009,-0.046,0.008,60.0,61.0,59.0,12.6,1504.1,150.0,-0.2,-0.2,1472.876,13.12,0.046,168.9
07,2021-11-30T21:00:00,1500.0,42.79,6.0312,0.025,-0.04,-0.014,60.0,61.0,59.0,12.6,1504.1,147.0,-0.5,-0.5,1472.859,13.12,0.047,148.0
